Location: Gloden
(48.4833°N, 15.3167°E)
Time: 16:59:30
(UTC+00:00)

SL-23 DEB - Pass Details

Date: 15 December 2019
Orbit: 423 x 3606 km, 51.5° (Epoch: 21 January)

Event Time Altitude Azimuth Distance (km) Brightness Sun altitude
Exits shadow 06:03:54 - 278° (W) 1,752 5.8 -6.4°
Reaches altitude 10° 06:04:26 10° 280° (W) 1,518 5.5 -6.3°
Maximum altitude 06:07:31 52° 359° (N) 591 3.8 -5.9°
Drops below altitude 10° 06:11:29 10° 77° (ENE) 1,948 7.4 -5.3°
Sets 06:14:19 0° 82° (E) 3,182 8.6 -4.9°
